Location: Le Rocchette
(44.3500°N, 7.8333°E)
Time: 16:02:42
(UTC+00:00)

Centaur D AC-28 - Pass Details

Date: 17 November 2019
Orbit: 603 x 36452 km, 28.6° (Epoch: 06 December)

Event Time Altitude Azimuth Distance (km) Brightness Sun altitude
Exits shadow 03:39:27 19° 184° (S) 2,148 4.2 -29.8°
Maximum altitude 03:40:51 21° 164° (SSE) 2,374 4.6 -29.5°
Drops below altitude 10° 03:48:59 10° 119° (ESE) 5,478 7.1 -28.1°
Sets 04:00:00 0° 108° (ESE) 9,878 8.8 -26.1°
